Regional Weather Roundup
Issued by NWS

Home | Current Version | Previous Version | Graphics & Text | Print | Product List | Glossary On
Versions: 1 2 3 4 5 6 7 8 9 10 11 12 13 14 15 16 17 18 19 20 21 22 23 24 25 26 27 28 29 30 31 32 33 34 35 36 37 38 39 40 41 42 43 44 45 46 47 48 49 50
594
ASUS44 KLIX 261410
RWRLA
LOUISIANA WEATHER ROUNDUP
NATIONAL WEATHER SERVICE NEW ORLEANS LA
900 AM CDT SAT JUL 26 2014

NOTE: "FAIR" INDICATES FEW OR NO CLOUDS BELOW 12,000 FEET WITH NO
      SIGNIFICANT WEATHER AND/OR OBSTRUCTIONS TO VISIBILITY.
      SKY/WX - SKY CONDITION AND SIGNIFICANT WEATHER.
      TMP - AIR TEMPERATURE.    DP   - DEWPOINT TEMPERATURE.
      RH  - RELATIVE HUMIDITY.  PRES - PRESSURE.
      HX  - HEAT INDEX.         WCI  - WIND CHILL INDEX.

*  THESE STATIONS ARE NOT NWS OR FAA STATIONS AND ARE NOT UNDER
   NWS QUALITY CONTROL.

LAZ040-048-061>063-065-066-069-261500-
SOUTHEAST LOUISIANA

CITY           SKY/WX    TMP DP  RH WIND       PRES   REMARKS
N.O. AUDUBON   NOT AVBL
N.O. INTL ARPT MOSUNNY   85  76  74 W8        30.09R
N.O. LAKEFRONT SUNNY     84  77  79 W7        30.09R
N.O. DOWNTOWN* FAIR      84  73  70 W5        30.09R
SLIDELL        MOSUNNY   85  76  74 VRB5      30.08R
BATON ROUGE    PTSUNNY   83  76  79 W6        30.09R
BOOTHVILLE     MOSUNNY   84  78  82 NW5       30.10R HX  95
BELLE CHASSE   MOSUNNY   85  74  69 VRB5      30.08R
BOGALUSA*      FAIR      82  76  79 W6        30.10R
GALLIANO*      NOT AVBL
NEW ROADS*     FAIR      82  77  86 NW5       30.09R
GONZALES*      FAIR      83  80  91 SW3       30.08R HX  95
HAMMOND*       SUNNY     84  73  70 W7        30.10R
HOUMA*         MOSUNNY   84  75  74 CALM      30.09R
PORT FOURCHON* PTSUNNY   86  77  74 SW8       30.11R HX  97

$$

LAZ041-044-053-054-261500-
SOUTHWEST LOUISIANA

CITY           SKY/WX    TMP DP  RH WIND       PRES   REMARKS
LAKE CHARLES   SUNNY     85  77  77 W5        30.07R HX  95
LAFAYETTE      MOSUNNY   84  77  79 W7        30.08R
PATTERSON      MOSUNNY   86  79  79 W5        30.13R HX  99
SALT POINT       N/A     88  78  72 VRB5      30.08R HX 101
NEW IBERIA     SUNNY     85  77  77 W5        30.09R HX  95
CHENAULT AIRPK MOSUNNY   84  75  74 W8        30.08R

$$

LAZ027-028-261500-
CENTRAL LOUISIANA

CITY           SKY/WX    TMP DP  RH WIND       PRES   REMARKS
FORT POLK      MOSUNNY   81  76  84 W8        30.08R
ALEXANDRIA INT SUNNY     83  76  79 W5        30.06R
ALEXANDRIA     SUNNY     84  76  76 W8        30.08R

$$

LAZ001-002-261500-
NORTHWEST LOUISIANA

CITY           SKY/WX    TMP DP  RH WIND       PRES   REMARKS
SHREVEPORT     MOSUNNY   82  74  76 W9        30.05R
BARKSDALE AFB  SUNNY     82  73  73 SW6       30.06R
DTN SHREVEPORT SUNNY     82  73  74 W7        30.05R

$$

LAZ014-016-261500-
NORTHEAST LOUISIANA

CITY           SKY/WX    TMP DP  RH WIND       PRES   REMARKS
MONROE         SUNNY     83  76  79 W8        30.06R
TALLULAH       SUNNY     83  77  82 VRB3      30.06R

$$




USA.gov is the U.S. government's official web portal to all federal, state and local government web resources and services.